Tracking 29747 objects as of 9-Oct-2024
HD Live streaming from Space Station
objects crossing your sky now

ONEWEB-0165

Track ONEWEB-0165 now!
10-day predictions
ONEWEB-0165 is classified as:


NORAD ID: 48233
Int'l Code: 2021-031Z
Perigee: 1,211.6 km
Apogee: 1,214.2 km
Inclination: 87.9 °
Period: 109.5 minutes
Semi major axis: 7583 km
RCS: Unknown
Launch date: April 25, 2021
Source: United Kingdom (UK)
Launch site: VOSTOCHNY COSMODROME (VOSTO)
Your satellite tracking list
Your tracking list is empty




NASA's NSSDC Master Catalog

Two Line Element Set (TLE):
1 48233U 21031Z   24283.10384593  .00000191  00000-0  48072-3 0  9994
2 48233  87.8992  52.2328 0001700  93.0537 267.0787 13.14504952167423
Source of the keplerian elements: AFSPC